DW9356 Weather Reports


Display with metric or nautical units.
time (UTC)temp
F
wind
direction
speed
MPH
gust
MPH
rain 1hr
in
rain 24hr
in
rain mn
in
humidity
%
barometer
mb
20260904032220 80 63 0.0 0.0 0.00 0.19 0.19 96 1012.8
20260904031722 80 63 0.0 0.0 0.00 0.19 0.19 95 1012.8
20260904031211 80 63 0.0 0.0 0.00 0.19 0.19 95 1012.8
20260904030930 80 63 0.0 0.0 0.00 0.19 0.19 95 1012.8
20260904030655 80 63 0.0 0.0 0.00 0.19 0.19 95 1012.8
20260904025706 80 63 0.0 0.0 0.00 0.19 0.19 95 1012.8
20260904025206 80 63 0.0 0.0 0.00 0.19 0.19 95 1012.8
20260904024651 80 63 0.0 0.0 0.00 0.19 0.19 95 1012.6
20260904024112 80 63 0.0 0.0 0.00 0.19 0.19 95 1012.7
20260904023605 80 63 0.0 0.0 0.00 0.19 0.19 95 1012.6
20260904023103 80 63 0.0 1.0 0.00 0.19 0.19 95 1012.6
20260904022810 80 63 0.0 1.0 0.00 0.19 0.19 95 1012.4
20260904022045 80 63 0.0 1.0 0.00 0.19 0.19 95 1012.3
20260904021642 80 63 0.0 1.0 0.00 0.19 0.19 95 1012.3
20260904020922 80 62 0.0 1.0 0.00 0.19 0.19 95 1012.2
20260904020313 80 62 0.0 1.0 0.00 0.20 0.19 94 1012.2
20260904015811 80 61 0.0 1.0 0.00 0.20 0.19 94 1012.1
20260904015312 80 61 0.0 1.0 0.00 0.20 0.19 94 1012.0
20260904014728 80 61 0.0 0.0 0.00 0.20 0.19 94 1012.1
20260904014220 80 61 0.0 1.0 0.00 0.21 0.19 94 1011.9
20260904013659 80 61 0.0 1.0 0.00 0.26 0.19 94 1011.9
20260904013157 80 61 0.0 1.0 0.00 0.29 0.19 94 1011.9
20260904012651 80 61 0.0 2.0 0.00 0.44 0.19 93 1011.8
20260904012152 80 61 0.0 2.0 0.00 0.54 0.19 93 1011.8
20260904011630 80 60 0.0 1.0 0.00 0.56 0.19 93 1011.8
20260904011132 80 60 0.0 1.0 0.00 0.58 0.19 93 1011.8
20260904010601 80 60 0.0 0.0 0.00 0.58 0.19 93 1011.8
20260904010044 80 60 0.0 1.0 0.00 0.58 0.19 92 1011.7
20260904005538 81 60 0.0 1.0 0.00 0.58 0.19 92 1011.7
20260904005012 81 60 0.0 1.0 0.00 0.58 0.19 92 1011.7
20260904004507 81 59 0.0 1.0 0.00 0.58 0.19 92 1011.7
20260904004428 81 59 0.0 1.0 0.00 0.58 0.19 92 1011.7
20260904003439 81 59 0.0 1.0 0.00 0.58 0.19 92 1011.7
20260904002928 81 59 0.0 1.0 0.00 0.58 0.19 92 1011.8
20260904002425 81 59 0.0 1.0 0.00 0.58 0.19 92 1011.8
20260904001926 82 59 0.0 1.0 0.00 0.58 0.19 92 1011.9
20260904001427 82 59 0.0 1.0 0.00 0.58 0.19 92 1011.9
20260904000905 82 59 0.0 1.0 0.00 0.58 0.19 92 1012.0
20260904000335 82 59 0.0 3.0 0.00 0.58 0.19 92 1012.1
20260903235834 82 59 0.0 3.0 0.00 0.58 0.19 92 1012.2
20260903235559 82 60 0.0 1.0 0.00 0.58 0.19 93 1012.2
20260903234810 81 60 0.0 2.0 0.00 0.58 0.19 93 1012.2
20260903234309 81 59 0.0 2.0 0.00 0.58 0.19 93 1012.2
20260903234024 81 69 0.0 3.0 0.00 0.58 0.19 94 1012.2
20260903233717 81 69 0.0 3.0 0.00 0.58 0.19 94 1012.1
20260903232712 80 69 0.0 3.0 0.00 0.58 0.19 94 1012.2
20260903232147 80 47 1.0 3.0 0.00 0.58 0.19 94 1012.3
20260903231852 80 128 0.0 2.0 0.00 0.58 0.19 94 1012.4
20260903231136 80 155 0.0 3.0 0.00 0.58 0.19 94 1012.3
20260903230630 80 155 1.0 3.0 0.00 0.58 0.19 95 1012.3
20260903230355 80 154 0.0 2.0 0.00 0.58 0.19 95 1012.3
20260903225627 80 154 0.0 2.0 0.00 0.58 0.19 95 1012.3
20260903225130 80 148 1.0 3.0 0.00 0.58 0.19 95 1012.3
20260903224619 80 148 1.0 3.0 0.00 0.58 0.19 95 1012.2
20260903224116 80 147 0.0 3.0 0.00 0.58 0.19 95 1012.2
20260903223614 79 82 1.0 3.0 0.00 0.58 0.19 95 1012.1
20260903223112 79 82 1.0 5.0 0.00 0.58 0.19 95 1012.1
20260903222608 79 93 1.0 5.0 0.00 0.58 0.19 95 1012.2
20260903222048 79 91 2.0 8.0 0.00 0.58 0.19 95 1012.2
20260903221525 79 91 2.0 8.0 0.00 0.58 0.19 95 1012.3
20260903221221 79 59 1.0 6.0 0.00 0.58 0.19 95 1012.4
20260903220445 79 80 2.0 7.0 0.00 0.58 0.19 95 1012.5
20260903215946 79 79 2.0 7.0 0.00 0.58 0.19 95 1012.6
20260903215446 79 75 1.0 6.0 0.00 0.58 0.19 95 1012.7
20260903214927 79 151 1.0 4.0 0.00 0.58 0.19 95 1012.7
20260903214645 79 92 1.0 5.0 0.00 0.58 0.19 95 1012.8
20260903213907 79 84 1.0 5.0 0.00 0.58 0.19 96 1012.9
20260903213349 79 86 1.0 3.0 0.00 0.58 0.19 96 1012.8
20260903212830 79 84 1.0 3.0 0.01 0.58 0.19 95 1012.9
20260903212306 79 84 1.0 7.0 0.01 0.58 0.19 95 1013.0
20260903211743 79 86 1.0 7.0 0.01 0.58 0.19 95 1013.0
20260903211228 79 91 1.0 5.0 0.01 0.58 0.19 96 1013.1
20260903210728 79 77 1.0 3.0 0.02 0.58 0.19 96 1013.2
20260903210228 78 78 0.0 3.0 0.02 0.58 0.19 95 1013.3
20260903205943 78 79 0.0 3.0 0.03 0.58 0.19 95 1013.4
20260903205220 78 78 0.0 3.0 0.04 0.58 0.19 95 1013.4
20260903204719 78 49 0.0 2.0 0.05 0.58 0.19 95 1013.4
20260903204220 78 68 0.0 3.0 0.05 0.58 0.19 95 1013.3
20260903203707 78 67 0.0 3.0 0.05 0.58 0.19 95 1013.3
20260903203427 78 67 1.0 5.0 0.05 0.58 0.19 95 1013.4
20260903202704 78 87 1.0 5.0 0.04 0.57 0.18 95 1013.5
20260903202421 78 92 1.0 5.0 0.05 0.57 0.18 95 1013.5
20260903201651 78 38 1.0 2.0 0.05 0.57 0.18 95 1013.6
20260903201152 78 38 1.0 2.0 0.06 0.57 0.18 95 1013.6
20260903200652 78 38 1.0 4.0 0.07 0.56 0.17 94 1013.5
20260903200146 78 38 1.0 4.0 0.09 0.55 0.16 94 1013.4
20260903195631 78 72 1.0 3.0 0.15 0.54 0.16 94 1013.5
20260903195132 78 73 1.0 3.0 0.15 0.54 0.15 94 1013.4
20260903194631 79 69 1.0 3.0 0.14 0.53 0.14 94 1013.4
20260903194131 79 76 1.0 3.0 0.14 0.53 0.14 94 1013.5
20260903193632 79 26 1.0 3.0 0.14 0.53 0.14 93 1013.5
20260903193111 79 61 0.0 3.0 0.14 0.53 0.14 93 1013.7
20260903192552 79 66 0.0 3.0 0.14 0.53 0.14 92 1013.8
20260903192054 79 148 0.0 1.0 0.13 0.52 0.13 92 1013.8
20260903191750 80 148 0.0 1.0 0.13 0.52 0.13 91 1013.9
20260903191006 80 148 0.0 1.0 0.12 0.51 0.12 91 1013.9
20260903190440 80 148 0.0 1.0 0.08 0.47 0.09 90 1013.7
20260903185921 80 148 0.0 1.0 0.04 0.43 0.04 90 1013.8
20260903185421 80 148 0.0 1.0 0.00 0.39 0.00 90 1014.1
20260903184923 80 149 0.0 1.0 0.00 0.39 0.00 89 1014.3
20260903184402 80 149 0.0 1.0 0.00 0.39 0.00 89 1014.4
20260903183840 80 150 0.0 1.0 0.00 0.39 0.00 89 1014.3
20260903183816 80 149 1.0 3.0 0.00 0.39 0.00 88 1014.5
20260903183059 80 149 1.0 5.0 0.00 0.39 0.00 88 1014.4
20260903182555 81 18 1.0 5.0 0.00 0.39 0.00 87 1014.1
20260903181833 81 147 0.0 3.0 0.00 0.39 0.00 86 1014.3
20260903181335 82 148 2.0 11.0 0.00 0.39 0.00 85 1014.1
20260903180827 82 141 3.0 11.0 0.00 0.39 0.00 84 1013.9
20260903180328 82 80 3.0 14.0 0.00 0.39 0.00 83 1014.2
20260903175825 83 86 5.0 14.0 0.00 0.39 0.00 83 1014.2
20260903175326 84 60 7.0 16.0 0.00 0.39 0.00 83 1014.2
20260903174818 85 96 3.0 16.0 0.00 0.39 0.00 83 1014.3
20260903174316 86 94 1.0 4.0 0.00 0.39 0.00 85 1014.5
20260903173812 87 38 1.0 4.0 0.00 0.39 0.00 84 1014.4
20260903173306 87 42 1.0 3.0 0.00 0.39 0.00 84 1014.3
20260903172805 87 35 1.0 3.0 0.00 0.39 0.00 84 1014.2
20260903172300 87 53 1.0 3.0 0.00 0.39 0.00 84 1014.2
20260903172024 87 343 1.0 3.0 0.00 0.39 0.00 84 1014.1
20260903171453 87 339 0.0 3.0 0.00 0.39 0.00 83 1013.9
20260903170707 87 39 1.0 3.0 0.00 0.39 0.00 82 1014.0
20260903170207 87 327 1.0 5.0 0.00 0.39 0.00 83 1014.1
20260903165643 87 40 1.0 5.0 0.00 0.39 0.00 83 1014.1
20260903165341 87 340 1.0 5.0 0.00 0.39 0.00 84 1014.1
20260903164552 88 292 1.0 5.0 0.00 0.39 0.00 84 1014.3
20260903164311 88 256 0.0 3.0 0.00 0.39 0.00 84 1014.4
20260903163549 87 254 0.0 3.0 0.00 0.39 0.00 84 1014.3
20260903163048 87 253 0.0 3.0 0.00 0.39 0.00 85 1014.2
20260903162523 87 254 0.0 3.0 0.00 0.39 0.00 84 1014.2
20260903162022 87 239 0.0 2.0 0.00 0.39 0.00 86 1014.2
20260903161453 86 244 0.0 2.0 0.00 0.39 0.00 87 1014.1
20260903160957 85 248 0.0 1.0 0.00 0.39 0.00 88 1014.1
20260903160429 85 248 0.0 4.0 0.00 0.39 0.00 88 1014.1
20260903155905 85 275 0.0 3.0 0.00 0.39 0.00 88 1014.1
20260903155402 85 271 0.0 3.0 0.00 0.39 0.00 88 1014.2
20260903154901 85 264 0.0 3.0 0.00 0.39 0.00 88 1014.1
20260903154338 85 188 0.0 2.0 0.00 0.39 0.00 89 1014.2
20260903153820 85 188 0.0 1.0 0.00 0.39 0.00 88 1014.2
20260903153243 85 186 0.0 1.0 0.00 0.39 0.00 89 1014.2
20260903152740 85 185 0.0 1.0 0.00 0.39 0.00 89 1014.2
20260903152220 85 185 0.0 3.0 0.00 0.39 0.00 89 1014.2
20260903151719 85 185 0.0 3.0 0.00 0.39 0.00 90 1014.3
20260903151208 84 185 1.0 3.0 0.00 0.39 0.00 90 1014.3
20260903150650 84 193 1.0 4.0 0.00 0.39 0.00 90 1014.3
20260903150147 84 157 1.0 4.0 0.00 0.39 0.00 90 1014.4
20260903145623 84 138 1.0 3.0 0.00 0.39 0.00 91 1014.4
20260903145053 84 152 1.0 3.0 0.00 0.39 0.00 91 1014.6
20260903144808 84 152 0.0 3.0 0.00 0.39 0.00 92 1014.6
20260903144049 83 151 0.0 3.0 0.00 0.39 0.00 92 1014.6
20260903143752 83 149 0.0 4.0 0.00 0.39 0.00 92 1014.5
20260903143000 83 139 1.0 4.0 0.00 0.39 0.00 93 1014.5
20260903142439 83 172 0.0 4.0 0.00 0.39 0.00 94 1014.5
20260903141937 83 164 1.0 3.0 0.00 0.39 0.00 94 1014.4
20260903141440 82 165 1.0 3.0 0.00 0.39 0.00 94 1014.4
20260903140916 82 128 1.0 4.0 0.00 0.39 0.00 94 1014.4
20260903140614 82 122 1.0 4.0 0.00 0.39 0.00 95 1014.4
20260903135847 81 157 1.0 4.0 0.00 0.39 0.00 95 1014.4
20260903135546 81 155 1.0 4.0 0.00 0.39 0.00 95 1014.4
20260903135239 81 158 1.0 3.0 0.00 0.39 0.00 95 1014.4
20260903134256 81 190 0.0 3.0 0.00 0.39 0.00 95 1014.4
20260903133750 80 213 0.0 1.0 0.00 0.39 0.00 95 1014.3
20260903133223 80 213 0.0 1.0 0.00 0.39 0.00 94 1014.3
20260903132657 80 213 0.0 0.0 0.00 0.39 0.00 94 1014.3
20260903132154 80 213 0.0 0.0 0.00 0.39 0.00 94 1014.2
20260903131627 80 213 0.0 1.0 0.00 0.39 0.00 94 1014.1
20260903131101 80 213 0.0 0.0 0.00 0.39 0.00 93 1014.1
20260903130536 80 213 0.0 1.0 0.00 0.39 0.00 93 1014.0
20260903130009 80 213 0.0 1.0 0.00 0.39 0.00 93 1014.0
20260903125934 80 213 0.0 2.0 0.00 0.39 0.00 93 1014.0
20260903125206 80 213 0.0 2.0 0.00 0.39 0.00 92 1013.7
20260903125149 80 213 0.0 2.0 0.00 0.39 0.00 92 1014.0
20260903125120 80 213 0.0 2.0 0.00 0.39 0.00 92 1013.8
20260903125049 80 213 0.0 2.0 0.00 0.39 0.00 92 1013.8
20260903123416 80 213 0.0 2.0 0.00 0.39 0.00 92 1013.7
20260903123112 80 213 0.0 2.0 0.00 0.39 0.00 92 1013.6
20260903122323 81 214 0.0 2.0 0.00 0.39 0.00 92 1013.5
20260903121819 81 218 0.0 2.0 0.00 0.39 0.00 93 1013.5
20260903121254 81 219 0.0 2.0 0.00 0.39 0.00 93 1013.5
20260903120729 81 220 0.0 2.0 0.00 0.39 0.00 93 1013.4
20260903120424 81 222 1.0 5.0 0.00 0.39 0.00 93 1013.4
20260903120149 81 135 1.0 5.0 0.00 0.39 0.00 93 1013.4
20260903115200 81 175 0.0 3.0 0.00 0.39 0.00 93 1013.4
20260903114631 81 173 0.0 2.0 0.00 0.39 0.00 93 1013.3
20260903114349 81 180 0.0 3.0 0.00 0.39 0.00 94 1013.3
20260903113843 81 180 0.0 3.0 0.00 0.39 0.00 93 1013.2
20260903113125 81 188 0.0 2.0 0.00 0.39 0.00 94 1013.2
20260903112552 81 187 0.0 2.0 0.00 0.39 0.00 93 1013.2
20260903112050 81 187 0.0 2.0 0.00 0.39 0.00 93 1013.2
20260903111522 81 188 0.0 2.0 0.00 0.39 0.00 93 1013.3
20260903110955 81 186 0.0 4.0 0.00 0.39 0.00 93 1013.3
20260903110429 81 186 1.0 4.0 0.00 0.39 0.00 93 1013.3
20260903105925 81 186 0.0 4.0 0.00 0.39 0.00 93 1013.3
20260903105400 81 179 0.0 2.0 0.00 0.39 0.00 93 1013.2
20260903104834 81 180 0.0 2.0 0.00 0.39 0.00 94 1013.2
20260903103740 81 180 0.0 2.0 0.00 0.39 0.00 94 1013.1
20260903103229 81 180 1.0 2.0 0.00 0.39 0.00 94 1013.1
20260903102728 81 184 1.0 4.0 0.00 0.39 0.00 94 1013.0
20260903102226 81 157 0.0 3.0 0.00 0.39 0.00 94 1013.0
20260903101710 81 176 0.0 2.0 0.00 0.39 0.00 93 1012.9
20260903101142 81 176 0.0 3.0 0.00 0.39 0.00 94 1012.9
20260903100615 81 175 0.0 3.0 0.00 0.39 0.00 94 1012.9
20260903100111 81 183 0.0 3.0 0.00 0.39 0.00 94 1012.9
20260903095545 81 184 0.0 3.0 0.00 0.39 0.00 94 1013.0
20260903095020 81 179 0.0 4.0 0.00 0.39 0.00 94 1013.0
20260903094454 81 179 1.0 3.0 0.00 0.39 0.00 94 1012.9
20260903093927 81 157 0.0 3.0 0.00 0.39 0.00 94 1012.9
20260903093622 81 156 0.0 2.0 0.00 0.39 0.00 94 1013.0
20260903093119 81 155 0.0 2.0 0.00 0.39 0.00 94 1012.9
20260903092351 81 155 0.0 1.0 0.00 0.39 0.00 94 1012.9
20260903091848 81 153 1.0 4.0 0.00 0.39 0.00 94 1013.0
20260903091610 81 152 1.0 4.0 0.00 0.39 0.00 94 1012.9
20260903090839 81 206 1.0 3.0 0.00 0.39 0.00 94 1012.9
20260903090332 81 200 1.0 3.0 0.00 0.39 0.00 94 1012.9
20260903085808 81 211 0.0 3.0 0.00 0.39 0.00 94 1012.9
20260903085242 81 175 1.0 3.0 0.00 0.39 0.00 95 1012.9
20260903084715 81 175 0.0 3.0 0.00 0.39 0.00 95 1012.9
20260903084149 81 175 0.0 3.0 0.00 0.39 0.00 95 1012.8
20260903083646 81 201 0.0 2.0 0.00 0.39 0.00 95 1012.8
20260903083406 81 201 1.0 2.0 0.00 0.39 0.00 95 1012.8
20260903082639 81 205 1.0 4.0 0.00 0.39 0.00 95 1012.8
20260903082402 81 205 1.0 4.0 0.00 0.39 0.00 95 1012.8
20260903081640 81 209 1.0 6.0 0.00 0.39 0.00 96 1012.7
20260903081137 81 184 1.0 6.0 0.00 0.39 0.00 96 1012.7
20260903080640 81 169 1.0 5.0 0.00 0.39 0.00 96 1012.6
20260903080112 80 150 1.0 5.0 0.00 0.39 0.00 96 1012.7
20260903075814 80 159 0.0 4.0 0.00 0.39 0.00 96 1012.7
20260903075043 80 171 0.0 4.0 0.00 0.39 0.00 96 1012.7
20260903074515 80 189 0.0 4.0 0.00 0.39 0.00 96 1012.6
20260903074218 80 163 0.0 2.0 0.00 0.39 0.00 96 1012.6
20260903072858 80 155 0.0 4.0 0.00 0.39 0.00 97 1012.7
20260903072330 80 174 0.0 4.0 0.00 0.39 0.00 97 1012.7
20260903071828 80 161 0.0 2.0 0.00 0.39 0.00 97 1012.7
20260903071324 80 157 0.0 2.0 0.00 0.39 0.00 97 1012.7
20260903070822 80 154 1.0 6.0 0.00 0.39 0.00 97 1012.8
20260903070255 80 139 0.0 3.0 0.00 0.39 0.00 97 1012.9
20260903065750 80 163 0.0 4.0 0.00 0.39 0.00 97 1013.1
20260903065247 80 161 0.0 4.0 0.00 0.39 0.00 97 1013.1
20260903064729 80 162 1.0 5.0 0.00 0.39 0.00 97 1013.1
20260903064451 80 204 1.0 5.0 0.00 0.39 0.00 97 1013.0
20260903063728 80 178 1.0 7.0 0.00 0.39 0.00 97 1012.9
20260903063200 80 190 1.0 6.0 0.00 0.39 0.00 97 1012.8
20260903062657 80 187 1.0 6.0 0.00 0.39 0.00 97 1012.9
20260903062127 80 187 1.0 5.0 0.00 0.39 0.00 97 1013.0
20260903061600 80 163 1.0 5.0 0.00 0.39 0.00 97 1013.2
20260903061058 80 169 1.0 4.0 0.00 0.39 0.00 97 1013.2
20260903060543 80 170 0.0 2.0 0.00 0.39 0.00 97 1013.3
20260903060043 80 184 0.0 1.0 0.00 0.39 0.00 97 1013.4
20260903055545 80 194 0.0 2.0 0.00 0.39 0.00 97 1013.5
20260903055042 80 194 0.0 2.0 0.00 0.39 0.00 97 1013.6
20260903054540 80 191 0.0 2.0 0.00 0.39 0.00 97 1013.7
20260903054012 80 314 0.0 1.0 0.00 0.39 0.00 97 1013.9
20260903053510 80 317 0.0 1.0 0.00 0.39 0.00 97 1014.0
20260903052944 80 317 0.0 1.0 0.00 0.39 0.00 97 1014.0
20260903052417 80 317 0.0 1.0 0.00 0.39 0.00 97 1014.0
20260903051913 80 317 0.0 1.0 0.00 0.39 0.00 97 1014.1
20260903051347 79 317 0.0 0.0 0.00 0.39 0.00 97 1014.2
20260903050843 79 317 0.0 0.0 0.00 0.39 0.00 97 1014.3
20260903050346 79 317 0.0 0.0 0.00 0.39 0.00 97 1014.3
20260903045819 79 317 0.0 1.0 0.00 0.39 0.39 97 1014.3
20260903045317 79 317 0.0 1.0 0.00 0.39 0.39 97 1014.3
20260903044814 79 317 0.0 1.0 0.00 0.39 0.39 97 1014.3
20260903044310 80 317 0.0 2.0 0.00 0.39 0.39 96 1014.3
20260903043745 80 318 1.0 4.0 0.00 0.39 0.39 96 1014.5
20260903043232 80 316 1.0 4.0 0.00 0.39 0.39 96 1014.6
20260903042735 81 192 0.0 1.0 0.00 0.39 0.39 97 1014.5
20260903042208 80 192 0.0 1.0 0.00 0.39 0.39 97 1014.5
20260903041705 80 191 0.0 1.0 0.00 0.39 0.39 97 1014.5
20260903041159 80 191 0.0 1.0 0.00 0.39 0.39 97 1014.4
20260903040656 80 191 0.0 1.0 0.00 0.39 0.39 97 1014.3
20260903040152 80 191 0.0 4.0 0.00 0.39 0.39 97 1014.2
20260903035648 79 191 0.0 4.0 0.00 0.39 0.39 97 1014.0
20260903035146 79 95 0.0 0.0 0.00 0.39 0.39 96 1013.9
20260903034620 79 95 0.0 0.0 0.00 0.39 0.39 96 1013.9
20260903034116 78 95 0.0 0.0 0.00 0.39 0.39 96 1013.9
20260903033549 78 95 0.0 0.0 0.00 0.39 0.39 96 1013.8
20260903033047 78 95 0.0 0.0 0.00 0.39 0.39 96 1013.8
20260903032743 78 95 0.0 0.0 0.00 0.39 0.39 96 1013.8